Starlink 4073

operational
NORAD ID: 52672 Int'l Des: 2022-053 Owner: SPXS Country: US Constellation: starlink
LEOCIRCULAR

Über Starlink 4073

Beschreibung wird geladen...

Live-Position

3D-Globus wird geladen...

Nächste Überflüge

Höhenverlauf

Altitude vs Time

uPlot chart will show altitude changes over time

Zweizeiliger Elementsatz

1 52672U 22053S 26063.48769927 .00000522 00000-0 50884-4 0 9991
2 52672 53.2178 177.4715 0001211 94.0037 266.1093 15.08837943210255
Epoch: 4. März 2026 • Age: 19 hours

Aktueller Status

Höhe 539.8 km
Geschwindigkeit 7.59 km/s
Subsatellitenpunkt 7.44°N, 94.22°W
Startdatum 18. Mai 2022
Alter 3.7 years
Typ internet

Technische Details

Klassifizierung Payload
Masse 297.00 kg
Trockenmasse 275.00 kg
Gesamtmasse 297.00 kg
Länge 0.20 m
Durchmesser 2.80 m
Spannweite 9.00 m
Form Box + pan
Hersteller SPXS
Bus-Typ Starlink
Phasenstatus In Orbit
Besitzer/Staat SPXS/US

Große Konstellationen

Loading constellations...